Location: Kuffner-Sternwarte
(48.2130°N, 16.2960°E)
Time: 04:47:28
(UTC+02:00)

ACS3 Solar Sail - Pass Details

Date: 29 September 2024
Orbit: 963 x 1036 km, 97.4° (Epoch: 04 October)

Event Time Altitude Azimuth Distance (km) Brightness Sun altitude
Exits shadow 20:32:17 23° 149° (SSE) 2,051 3.1 -19.7°
Maximum altitude 20:36:29 68° 72° (ENE) 1,108 1.8 -20.4°
Drops below altitude 10° 20:42:49 10° 352° (N) 2,824 4.6 -21.4°
Sets 20:45:19 0° 350° (N) 3,770 5.3 -21.8°
